Lid_Strength_Index
9 9 8 7 7 8 9 10 9 9 9 9 9 9 9 9 10 11 11 10 11 11 11 10 11 11 11 12 11 12 12 11 13 12 12 12 12 12 12 11 10 11 11
8 9 9 9 9 8 8 9 9 10 9 9 9 8 8 10 10 10 10 10 10 11 10 10 10 9 11 12 11 13 12 12 12 14 13 13 13 12 11 11 10 9 10
9 9 9 9 8 9 9 10 10 10 10 10 9 9 9 9 10 9 8 9 9 9 10 10 10 10 11 11 11 12 12 10 11 11 11 12 11 11 12 11 11 10 8
7 8 9 10 9 9 10 11 10 10 10 10 9 9 9 9 9 9 8 9 8 8 8 9 9 9 9 10 10 10 10 10 11 11 12 12 12 10 11 11 10 10 10
7 8 8 8 8 8 8 8 8 9 8 8 9 9 9 9 8 9 9 10 11 10 8 7 7 6 4 6 8 9 10 11 11 12 13 12 11 9 9 8 10 9 9
7 7 7 7 8 9 8 8 8 8 8 8 8 8 9 8 7 6 8 10 10 10 9 8 7 5 5 3 3 3 7 9 10 11 11 11 10 10 10 10 10 10 11
7 7 7 7 8 8 9 9 9 9 10 9 10 9 8 7 6 6 5 9 10 9 9 9 8 5 4 4 3 1 0 1 3 8 9 8 8 8 9 10 10 10 10
6 6 5 6 6 7 8 9 10 10 10 10 9 9 8 7 6 6 5 7 9 9 8 7 6 5 4 3 3 3 4 4 4 4 5 6 7 7 9 8 8 9 8
5 5 5 5 6 6 7 8 8 8 8 8 7 7 8 7 5 6 6 7 7 6 5 4 4 4 3 3 3 5 6 7 5 3 3 3 3 4 4 6 8 9 9
4 5 4 4 5 6 6 7 7 7 7 6 6 6 5 6 4 4 4 4 5 4 3 3 2 3 4 5 7 8 9 8 8 8 8 7 6 6 4 6 7 9 8
3 3 4 4 4 5 6 6 6 6 6 6 5 5 4 4 4 3 3 4 5 5 3 4 3 4 5 5 6 8 7 7 7 8 8 8 8 7 7 6 7 7 8
3 4 4 4 4 4 5 5 4 5 5 5 5 5 4 4 2 3 4 4 3 5 5 3 3 3 4 5 5 5 4 4 7 8 9 8 8 8 7 7 7 8 7
3 4 4 3 3 3 3 4 4 4 5 4 5 5 5 5 5 3 4 4 3 5 4 2 3 4 4 4 3 3 3 6 7 8 8 8 8 7 8 8 8 8 8
4 4 3 3 3 3 3 3 4 4 5 5 5 5 6 6 6 5 4 4 5 4 3 7 6 5 4 4 5 5 5 6 6 7 8 8 8 9 9 9 10 8 9
4 3 4 4 3 3 2 3 3 3 4 5 5 5 6 7 5 4 5 7 8 8 8 10 9 10 9 8 7 7 7 7 7 7 8 8 9 9 10 9 10 9 10
4 4 4 3 3 4 3 2 5 6 5 5 5 4 5 4 4 5 6 6 6 7 11 11 11 10 10 9 8 7 7 6 7 7 8 8 9 9 10 9 10 10 10
3 2 2 2 4 5 4 5 5 5 6 5 6 5 5 5 5 6 6 7 7 8 11 11 11 10 9 9 8 8 8 7 7 8 8 8 9 9 10 10 10 10 10
4 3 2 4 4 5 4 4 4 5 5 5 6 6 5 5 6 6 6 7 9 9 11 10 10 9 9 8 7 8 8 7 8 8 8 8 9 10 10 10 10 10 11
2 2 3 4 4 4 5 5 4 4 5 4 5 6 6 6 6 6 7 9 9 10 9 9 8 9 8 8 8 8 8 8 8 9 9 9 10 11 11 11 11 10 11
2 4 4 4 4 5 6 6 5 5 5 4 5 4 6 7 6 6 7 7 8 8 9 9 8 8 8 8 8 8 8 8 8 9 9 9 10 11 11 11 11 11 12
4 4 6 5 5 6 5 6 5 5 5 4 5 3 6 5 5 5 5 6 7 7 7 7 7 8 8 8 8 8 8 8 9 9 9 10 10 11 11 11 11 11 12
4 5 5 5 4 5 5 5 6 5 5 5 4 5 8 6 5 5 5 5 5 6 6 6 6 6 7 7 7 8 8 8 9 9 9 10 10 11 11 11 11 12 13
5 4 5 4 4 5 5 4 5 4 4 4 5 6 8 7 5 6 6 5 5 5 5 5 5 6 6 6 6 7 8 8 9 9 10 10 11 11 11 12 11 12 13
4 4 5 5 6 6 6 6 6 6 5 5 5 4 5 8 8 7 6 5 4 4 5 5 5 5 5 5 5 5 7 8 9 9 9 10 11 11 12 12 11 12 13
5 5 6 6 5 5 6 5 5 6 7 7 7 6 6 6 5 4 3 4 4 4 3 4 4 3 3 3 4 6 8 9 9 9 10 11 11 11 12 12 11 12 13
5 5 5 4 5 6 6 6 6 6 6 7 7 7 7 6 5 5 5 5 5 4 3 3 3 2 3 3 5 8 9 9 9 9 10 11 12 12 12 12 12 13 13